Weather History for KEFD - February, 2013

Change the Weather History Date:

Sunday, February 10, 2013

  Actual Average Record
Temperature  
Mean Temperature 66 °F -  
Max Temperature 71 °F 63 °F 78 °F (1999)
Min Temperature 60 °F 46 °F 26 °F (2011)
Growing Degree Days 16 (Base 50)    
Moisture  
Dew Point 62 °F    
Average Humidity 84    
Maximum Humidity 94    
Minimum Humidity 68    
Precipitation  
Precipitation 0.00 in - - ()
Sea Level Pressure  
Sea Level Pressure 29.90 in    
Wind  
Wind Speed 11 mph (NE)    
Max Wind Speed 17 mph    
Max Gust Speed 28 mph    
Visibility 9 miles    
Events Rain    
Averages and records for this station are not official NWS values.
T = Trace of Precipitation, MM = Missing Value Source: NWS Daily Summary

Daily Weather History Graph

Daily Weather History Graph

Search for Another Location

Airport or City:

Trip Planner

Search our weather history database for the weather conditions in past years. The results will help you decide how hot, cold, wet, or windy it might be!

Date:

Astronomy

Feb. 10, 2013 Rise Set
Actual Time 7:03 AM CST 6:06 PM CST
Civil Twilight 6:39 AM CST 6:30 PM CST
Nautical Twilight 6:11 AM CST 6:58 PM CST
Astronomical Twilight 5:43 AM CST 7:26 PM CST
Moon 7:00 AM CST (2/10) 6:49 PM CST (2/10)
Length of Visible Light 11h 51m
Length of Day
11h 02m
New Moon, 0% of the Moon is Illuminated
Feb 10
New Moon
Feb 17
First Quarter
Feb 25
Full
Mar 4
Last Quarter
Mar 11
New

Hourly Weather History & Observations

Time (CST) Temp. Dew Point Humidity Pressure Visibility Wind Dir Wind Speed Gust Speed Precip Events Conditions
12:50 AM 69.8 °F 68.0 °F 94% 29.88 in 10.0 mi SSE 13.8 mph - N/A   Overcast
1:50 AM 69.8 °F 68.0 °F 94% 29.88 in 10.0 mi SSE 9.2 mph - N/A   Overcast
2:50 AM 69.8 °F 68.0 °F 94% 29.85 in 10.0 mi SSE 13.8 mph - N/A   Overcast
4:50 AM 69.8 °F 68.0 °F 94% 29.77 in 10.0 mi SSE 17.3 mph 27.6 mph N/A Rain Light Rain
7:50 AM 71.6 °F 69.8 °F 94% 29.83 in 10.0 mi South 12.7 mph - N/A   Mostly Cloudy
8:50 AM 71.6 °F 69.8 °F 94% 29.88 in 10.0 mi South 15.0 mph - N/A   Overcast
9:50 AM 71.6 °F 69.8 °F 94% 29.88 in 6.0 mi South 12.7 mph - N/A Rain Light Rain
10:50 AM 71.6 °F 69.8 °F 94% 29.90 in 4.0 mi South 12.7 mph - N/A Rain Light Rain
11:50 AM 64.4 °F 59.0 °F 83% 29.91 in 6.0 mi NNW 17.3 mph - N/A Rain Light Rain
12:50 PM 60.8 °F 59.0 °F 94% 29.89 in 8.0 mi North 9.2 mph - N/A   Overcast
1:50 PM 60.8 °F 57.2 °F 88% 29.90 in 6.0 mi NNW 10.4 mph - N/A   Drizzle
3:50 PM 64.4 °F 57.2 °F 77% 29.89 in 10.0 mi North 5.8 mph - N/A   Overcast
4:50 PM 64.4 °F 57.2 °F 77% 29.91 in 10.0 mi North 4.6 mph - N/A   Overcast
5:50 PM 64.4 °F 57.2 °F 77% 29.91 in 10.0 mi Calm Calm - N/A   Overcast
6:50 PM 64.4 °F 57.2 °F 77% 29.91 in 10.0 mi NE 3.5 mph - N/A   Mostly Cloudy
7:50 PM 64.4 °F 57.2 °F 77% 29.93 in 10.0 mi ENE 2.3 mph - N/A   Mostly Cloudy
8:50 PM 64.4 °F 53.6 °F 68% 29.94 in 10.0 mi NE 5.8 mph - N/A   Mostly Cloudy
9:50 PM 64.4 °F 53.6 °F 68% 29.96 in 10.0 mi NNE 6.9 mph - N/A   Overcast
10:50 PM 64.4 °F 55.4 °F 73% 29.96 in 10.0 mi NE 5.8 mph - N/A   Overcast
11:50 PM 64.4 °F 55.4 °F 73% 29.98 in 10.0 mi NNW 4.6 mph - N/A   Overcast